Weather History for 08221 - December, 2013

Change the Weather History Date:

Monday, December 2, 2013

  Actual Average Record
Temperature  
Mean Temperature 38 °F -  
Max Temperature 52 °F 49 °F - ()
Min Temperature 23 °F 33 °F - ()
Degree Days  
Heating Degree Days 28    
Moisture  
Dew Point 22 °F    
Average Humidity 58    
Maximum Humidity 86    
Minimum Humidity 19    
Precipitation  
Precipitation 0.00 in 0.06 in - ()
Sea Level Pressure  
Sea Level Pressure 30.16 in    
Wind  
Wind Speed 4 mph ()    
Max Wind Speed 9 mph    
Max Gust Speed 17 mph    
Visibility 18.5 miles    
Events      
T = Trace of Precipitation, MM = Missing Value Source: Averaged Metar Reports

Daily Weather History Graph

Daily Weather History Graph

Search for Another Location

Airport or City:

Trip Planner

Search our weather history database for the weather conditions in past years. The results will help you decide how hot, cold, wet, or windy it might be!

Date:

Astronomy

Dec. 02, 2013 Rise Set
Actual Time 8:19 AM CET 5:47 PM CET
Civil Twilight 7:48 AM CET 6:18 PM CET
Nautical Twilight 7:14 AM CET 6:52 PM CET
Astronomical Twilight 6:42 AM CET 7:25 PM CET
Moon 7:28 AM CET (12/2) 5:37 PM CET (12/2)
Length of Visible Light 10h 29m
Length of Day
9h 28m
Waning Crescent, 0% of the Moon is Illuminated
Dec 2
Waning Crescent
Dec 3
New
Dec 9
First Quarter
Dec 17
Full
Dec 25
Last Quarter

Hourly Weather History & Observations

Time (CET) Temp. Windchill Dew Point Humidity Pressure Visibility Wind Dir Wind Speed Gust Speed Precip Events Conditions
12:00 AM 33 °F - 21 °F 49% 30.23 in 19 mi North 3.5 mph - -  
12:00 AM 33.8 °F 30.8 °F 21.2 °F 60% 30.12 in - North 3.5 mph - N/A   Clear
12:30 AM 30.2 °F - 21.2 °F 69% 30.15 in - Variable 2.3 mph - N/A   Clear
1:00 AM 30 °F - 21 °F 57% 30.27 in 19 mi NE 2.3 mph - -  
1:00 AM 30.2 °F - 19.4 °F 64% 30.15 in - Variable 1.2 mph - N/A   Clear
1:30 AM 28.4 °F 23.3 °F 21.2 °F 74% 30.15 in - North 4.6 mph - N/A   Clear
2:00 AM 28 °F - 21 °F 65% 30.27 in 19 mi North 6.9 mph - -  
2:00 AM 28.4 °F 23.3 °F 19.4 °F 69% 30.15 in - North 4.6 mph - N/A   Clear
2:30 AM 26.6 °F 21.2 °F 19.4 °F 74% 30.15 in - NNW 4.6 mph - N/A   Clear
3:00 AM 28 °F - 21 °F 65% 30.26 in 19 mi NNW 6.9 mph - -  
3:00 AM 26.6 °F 19.1 °F 19.4 °F 74% 30.12 in - NW 6.9 mph - N/A   Clear
3:30 AM 26.6 °F 19.1 °F 19.4 °F 74% 30.12 in - NW 6.9 mph - N/A   Clear
4:00 AM 26.6 °F 20.0 °F 19.4 °F 74% 30.12 in - NNW 5.8 mph - N/A   Clear
4:30 AM 26.6 °F 21.2 °F 19.4 °F 74% 30.12 in - North 4.6 mph - N/A   Clear
5:00 AM 26 °F - 20 °F 70% 30.25 in 19 mi North 4.6 mph - -  
5:00 AM 24.8 °F 20.5 °F 19.4 °F 80% 30.09 in - North 3.5 mph - N/A   Clear
5:30 AM 24.8 °F 20.5 °F 19.4 °F 80% 30.12 in - North 3.5 mph - N/A   Clear
6:00 AM 24 °F - 20 °F 77% 30.25 in 19 mi NW 2.3 mph - -  
6:00 AM 23.0 °F - 19.4 °F 86% 30.12 in - Variable 1.2 mph - N/A   Clear
6:30 AM 24.8 °F - 19.4 °F 80% 30.12 in - Variable 1.2 mph - N/A   Clear
7:00 AM 24 °F - 20 °F 77% 30.26 in 19 mi NNE 4.6 mph - -  
7:00 AM 23.0 °F 18.4 °F 17.6 °F 80% 30.12 in - NNE 3.5 mph - N/A   Clear
7:30 AM 23.0 °F 18.4 °F 17.6 °F 80% 30.12 in - North 3.5 mph - N/A   Clear
8:00 AM 23 °F - 20 °F 81% 30.26 in 19 mi North 2.3 mph - -   Scattered Clouds
8:00 AM 23.0 °F - 17.6 °F 80% 30.12 in - North 2.3 mph - N/A   Clear
8:30 AM 23.0 °F 18.4 °F 19.4 °F 86% 30.12 in - North 3.5 mph - N/A   Clear
9:00 AM 24 °F - 20 °F 80% 30.28 in 19 mi North 3.5 mph - -   Scattered Clouds
9:00 AM 23.0 °F - 19.4 °F 86% 30.12 in - Variable 2.3 mph - N/A   Clear
9:30 AM 24.8 °F - 19.4 °F 80% 30.15 in - NNE 2.3 mph - N/A   Clear
10:00 AM 28.4 °F - 21.2 °F 74% 30.15 in - Variable 2.3 mph - N/A   Clear
10:30 AM 32.0 °F - 21.2 °F 64% 30.15 in - Variable 1.2 mph - N/A   Clear
11:00 AM 35 °F - 23 °F 50% 30.24 in 19 mi NNW 2.3 mph - -   Scattered Clouds
11:00 AM 33.8 °F - 23.0 °F 65% 30.15 in - Variable 2.3 mph - N/A   Clear
11:30 AM 37.4 °F - 23.0 °F 56% 30.15 in - ENE 2.3 mph - N/A   Clear
12:00 PM 41 °F - 24 °F 38% 30.21 in 11 mi SSW 3.5 mph - -  
12:00 PM 39.2 °F - 24.8 °F 56% 30.15 in - South 2.3 mph - N/A   Clear
12:30 PM 42.8 °F - 24.8 °F 49% 30.12 in - SW 2.3 mph - N/A   Clear
1:00 PM 45 °F - 25 °F 33% 30.17 in 17 mi SSW 2.3 mph - -  
1:00 PM 44.6 °F - 23.0 °F 43% 30.12 in - Variable 2.3 mph - N/A   Clear
1:30 PM 44.6 °F 43.1 °F 23.0 °F 43% 30.12 in - South 3.5 mph 17.3 mph N/A   Clear
2:00 PM 49 °F - 22 °F 22% 30.14 in 19 mi South 3.5 mph - -  
2:00 PM 46.4 °F 44.3 °F 21.2 °F 37% 30.12 in - South 4.6 mph - N/A   Clear
2:30 PM 48.2 °F - 23.0 °F 37% 30.09 in - WNW 3.5 mph - N/A   Clear
3:00 PM 51 °F - 21 °F 19% 30.12 in 19 mi SW 3.5 mph - -  
3:00 PM 50.0 °F - 21.2 °F 32% 30.09 in - West 1.2 mph - N/A   Clear
3:30 PM 51.8 °F - 21.2 °F 30% 30.09 in - Variable 2.3 mph - N/A   Clear
4:00 PM 50.0 °F - 21.2 °F 32% 30.09 in - WNW 4.6 mph - N/A   Clear
4:30 PM 51.8 °F - 21.2 °F 30% 30.09 in - NW 5.8 mph - N/A   Clear
5:00 PM 52 °F - 22 °F 19% 30.12 in 19 mi WNW 5.8 mph - -  
5:00 PM 50.0 °F - 21.2 °F 32% 30.09 in - NW 4.6 mph - N/A   Clear
5:30 PM 50.0 °F - 21.2 °F 32% 30.09 in - NNW 4.6 mph - N/A   Clear
6:00 PM 46 °F - 21 °F 25% 30.17 in 19 mi North 6.9 mph - -  
6:00 PM 46.4 °F 43.5 °F 21.2 °F 37% 30.12 in - North 5.8 mph - N/A   Clear
6:30 PM 44.6 °F 42.2 °F 21.2 °F 39% 30.12 in - North 4.6 mph - N/A   Clear
7:00 PM 41 °F - 22 °F 33% 30.21 in 19 mi NNW 5.8 mph - -  
7:00 PM 39.2 °F 35.0 °F 23.0 °F 52% 30.15 in - NNW 5.8 mph - N/A   Clear
7:30 PM 41.0 °F 37.1 °F 23.0 °F 49% 30.15 in - NNW 5.8 mph - N/A   Clear
8:00 PM 40 °F - 24 °F 39% 30.23 in 19 mi NNW 6.9 mph - -  
8:00 PM 41.0 °F 37.1 °F 23.0 °F 49% 30.15 in - NNW 5.8 mph - N/A   Clear
8:30 PM 39.2 °F 33.0 °F 23.0 °F 52% 30.18 in - NNW 9.2 mph - N/A   Clear
9:00 PM 38 °F - 24 °F 45% 30.26 in 19 mi NNW 6.9 mph - -  
9:00 PM 37.4 °F 32.1 °F 23.0 °F 56% 30.18 in - NNW 6.9 mph - N/A   Clear
9:30 PM 37.4 °F 32.8 °F 24.8 °F 60% 30.18 in - NNW 5.8 mph - N/A   Clear
10:00 PM 35.6 °F 31.7 °F 24.8 °F 65% 30.21 in - North 4.6 mph - N/A   Clear
10:30 PM 33.8 °F 28.6 °F 24.8 °F 70% 30.21 in - North 5.8 mph - N/A   Clear
11:00 PM 33 °F - 26 °F 66% 30.32 in 19 mi NNW 4.6 mph - -  
11:00 PM 33.8 °F 29.6 °F 24.8 °F 70% 30.21 in - NNW 4.6 mph - N/A   Clear
11:30 PM 33.8 °F 29.6 °F 26.6 °F 75% 30.24 in - North 4.6 mph - N/A   Clear